Time,TemperatureF,DewpointF,PressureIn,WindDirection,WindDirectionDegrees,WindSpeedMPH,WindSpeedGustMPH,Humidity,HourlyPrecipIn,Conditions,Clouds,dailyrainin,SoftwareType,DateUTC
2013-08-26 08:15:00,62.6,57.7,29.97,South,180,1.0,1.0,84,0.00,,,0.04,Wunderground v.1.15,2013-08-26 15:15:00,
2013-08-26 08:20:00,62.8,57.9,29.97,South,179,1.0,1.0,84,0.00,,,0.04,Wunderground v.1.15,2013-08-26 15:20:00,
2013-08-26 08:25:00,63.3,58.0,29.97,South,180,0.0,0.0,83,0.00,,,0.04,Wunderground v.1.15,2013-08-26 15:25:00,
2013-08-26 08:30:00,63.9,58.6,29.97,South,180,0.0,0.0,83,0.00,,,0.04,Wunderground v.1.15,2013-08-26 15:30:00,
2013-08-26 08:35:00,64.1,58.5,29.97,South,180,0.0,0.0,82,0.00,,,0.04,Wunderground v.1.15,2013-08-26 15:35:00,
2013-08-26 08:45:00,64.6,58.3,29.97,South,179,0.0,0.0,80,0.00,,,0.04,Wunderground v.1.15,2013-08-26 15:45:00,
2013-08-26 08:50:00,65.0,58.7,29.97,South,180,0.0,0.0,80,0.00,,,0.04,Wunderground v.1.15,2013-08-26 15:50:00,
2013-08-26 08:55:00,65.4,59.1,29.98,South,180,0.0,0.0,80,0.00,,,0.04,Wunderground v.1.15,2013-08-26 15:55:00,
2013-08-26 09:00:00,65.7,58.7,29.97,South,176,0.0,0.0,78,0.00,,,0.04,Wunderground v.1.15,2013-08-26 16:00:00,
2013-08-26 09:05:00,66.3,58.9,29.97,South,177,0.0,0.0,77,0.00,,,0.04,Wunderground v.1.15,2013-08-26 16:05:00,
2013-08-26 09:15:00,66.8,59.4,29.97,South,177,0.0,0.0,77,0.00,,,0.04,Wunderground v.1.15,2013-08-26 16:15:00,
2013-08-26 09:20:00,67.2,59.0,29.97,South,177,0.0,0.0,75,0.00,,,0.04,Wunderground v.1.15,2013-08-26 16:20:00,
2013-08-26 09:25:00,67.6,59.4,29.97,South,178,0.0,0.0,75,0.00,,,0.04,Wunderground v.1.15,2013-08-26 16:25:00,
2013-08-26 09:30:00,67.7,59.1,29.98,South,178,0.0,0.0,74,0.00,,,0.04,Wunderground v.1.15,2013-08-26 16:30:00,
2013-08-26 09:40:00,68.5,60.3,29.98,ESE,104,0.0,0.0,75,0.00,,,0.04,Wunderground v.1.15,2013-08-26 16:40:00,
2013-08-26 09:45:00,68.7,58.1,29.98,South,174,0.0,0.0,69,0.00,,,0.04,Wunderground v.1.15,2013-08-26 16:45:00,
2013-08-26 09:50:00,68.9,58.7,29.98,South,174,0.0,0.0,70,0.00,,,0.04,Wunderground v.1.15,2013-08-26 16:50:00,
2013-08-26 09:55:00,69.3,59.1,29.98,South,174,0.0,0.0,70,0.00,,,0.04,Wunderground v.1.15,2013-08-26 16:55:00,
2013-08-26 10:05:00,70.0,59.0,29.98,WSW,246,0.0,0.0,68,0.00,,,0.04,Wunderground v.1.15,2013-08-26 17:05:00,
2013-08-26 10:15:00,70.7,58.8,29.98,SSW,196,0.0,0.0,66,0.00,,,0.04,Wunderground v.1.15,2013-08-26 17:15:00,
2013-08-26 10:20:00,70.7,58.8,29.97,South,190,0.0,0.0,66,0.00,,,0.04,Wunderground v.1.15,2013-08-26 17:20:00,
2013-08-26 10:25:00,70.8,58.9,29.97,South,190,0.0,0.0,66,0.00,,,0.04,Wunderground v.1.15,2013-08-26 17:25:00,
2013-08-26 10:30:00,71.9,59.9,29.97,SSW,194,0.0,0.0,66,0.00,,,0.04,Wunderground v.1.15,2013-08-26 17:30:00,
2013-08-26 10:35:00,72.5,58.7,29.97,SSW,213,0.0,0.0,62,0.00,,,0.04,Wunderground v.1.15,2013-08-26 17:35:00,
2013-08-26 10:40:00,72.4,58.2,29.97,NNW,331,0.0,0.0,61,0.00,,,0.04,Wunderground v.1.15,2013-08-26 17:40:00,
2013-08-26 10:50:00,73.6,59.8,29.97,South,169,0.0,3.0,62,0.00,,,0.04,Wunderground v.1.15,2013-08-26 17:50:00,
2013-08-26 10:55:00,73.0,58.3,29.97,East,90,0.0,3.0,60,0.00,,,0.04,Wunderground v.1.15,2013-08-26 17:55:00,
2013-08-26 11:00:00,73.7,58.5,29.97,SE,135,0.0,0.0,59,0.00,,,0.04,Wunderground v.1.15,2013-08-26 18:00:00,
2013-08-26 11:05:00,74.7,59.9,29.97,SE,136,0.0,0.0,60,0.00,,,0.04,Wunderground v.1.15,2013-08-26 18:05:00,
2013-08-26 11:15:00,75.0,60.6,29.97,SE,140,0.0,0.0,61,0.00,,,0.04,Wunderground v.1.15,2013-08-26 18:15:00,
2013-08-26 11:20:00,75.6,60.3,29.97,SE,140,0.0,0.0,59,0.00,,,0.04,Wunderground v.1.15,2013-08-26 18:20:00,
2013-08-26 11:25:00,76.0,60.2,29.97,South,173,0.0,0.0,58,0.00,,,0.04,Wunderground v.1.15,2013-08-26 18:25:00,
2013-08-26 11:35:00,75.7,59.9,29.97,South,178,0.0,0.0,58,0.00,,,0.04,Wunderground v.1.15,2013-08-26 18:35:00,
2013-08-26 11:40:00,75.5,61.6,29.97,South,176,0.0,0.0,62,0.00,,,0.04,Wunderground v.1.15,2013-08-26 18:40:00,
2013-08-26 11:45:00,76.6,59.7,29.97,South,176,0.0,0.0,56,0.00,,,0.04,Wunderground v.1.15,2013-08-26 18:45:00,
2013-08-26 11:50:00,77.4,62.4,29.97,SSW,192,0.0,0.0,60,0.00,,,0.04,Wunderground v.1.15,2013-08-26 18:50:00,
2013-08-26 12:00:00,78.0,61.5,29.96,South,191,0.0,0.0,57,0.00,,,0.04,Wunderground v.1.15,2013-08-26 19:00:00,
2013-08-26 12:05:00,77.9,58.9,29.96,South,191,0.0,0.0,52,0.00,,,0.04,Wunderground v.1.15,2013-08-26 19:05:00,
2013-08-26 12:15:00,78.7,60.7,29.95,South,191,0.0,0.0,54,0.00,,,0.04,Wunderground v.1.15,2013-08-26 19:15:00,
2013-08-26 12:20:00,78.2,59.7,29.95,SE,126,0.0,0.0,53,0.00,,,0.04,Wunderground v.1.15,2013-08-26 19:20:00,
2013-08-26 12:30:00,78.5,58.9,29.95,SSE,161,0.0,0.0,51,0.00,,,0.04,Wunderground v.1.15,2013-08-26 19:30:00,
2013-08-26 12:35:00,79.0,62.5,29.95,SSE,160,0.0,0.0,57,0.00,,,0.04,Wunderground v.1.15,2013-08-26 19:35:00,
2013-08-26 12:40:00,79.2,60.6,29.95,ENE,71,0.0,0.0,53,0.00,,,0.04,Wunderground v.1.15,2013-08-26 19:40:00,
2013-08-26 12:50:00,79.2,59.5,29.94,NE,49,0.0,2.0,51,0.00,,,0.04,Wunderground v.1.15,2013-08-26 19:50:00,
2013-08-26 12:55:00,79.2,58.4,29.94,East,83,0.0,2.0,49,0.00,,,0.04,Wunderground v.1.15,2013-08-26 19:55:00,
2013-08-26 13:00:00,80.4,62.2,29.94,East,83,0.0,0.0,54,0.00,,,0.04,Wunderground v.1.15,2013-08-26 20:00:00,
2013-08-26 13:05:00,81.4,59.8,29.94,South,190,0.0,0.0,48,0.00,,,0.04,Wunderground v.1.15,2013-08-26 20:05:00,
2013-08-26 13:15:00,81.6,58.8,29.93,SW,217,0.0,0.0,46,0.00,,,0.04,Wunderground v.1.15,2013-08-26 20:15:00,
2013-08-26 13:20:00,81.5,58.1,29.93,SE,143,0.0,0.0,45,0.00,,,0.04,Wunderground v.1.15,2013-08-26 20:20:00,
2013-08-26 13:25:00,81.3,59.7,29.93,East,87,0.0,0.0,48,0.00,,,0.04,Wunderground v.1.15,2013-08-26 20:25:00,
2013-08-26 13:30:00,80.7,56.8,29.93,ESE,108,0.0,0.0,44,0.00,,,0.04,Wunderground v.1.15,2013-08-26 20:30:00,
2013-08-26 13:40:00,82.2,58.1,29.93,ESE,106,0.0,0.0,44,0.00,,,0.04,Wunderground v.1.15,2013-08-26 20:40:00,
2013-08-26 13:45:00,82.1,61.0,29.93,ESE,106,0.0,0.0,49,0.00,,,0.04,Wunderground v.1.15,2013-08-26 20:45:00,
2013-08-26 13:50:00,81.7,57.7,29.93,ENE,64,0.0,2.0,44,0.00,,,0.04,Wunderground v.1.15,2013-08-26 20:50:00,
2013-08-26 13:55:00,81.6,58.2,29.92,East,83,0.0,2.0,45,0.00,,,0.04,Wunderground v.1.15,2013-08-26 20:55:00,
2013-08-26 14:00:00,82.1,58.0,29.92,East,81,0.0,0.0,44,0.00,,,0.04,Wunderground v.1.15,2013-08-26 21:00:00,
2013-08-26 14:05:00,82.6,60.3,29.92,East,84,0.0,0.0,47,0.00,,,0.04,Wunderground v.1.15,2013-08-26 21:05:00,
2013-08-26 14:15:00,82.8,56.7,29.92,East,92,0.0,1.0,41,0.00,,,0.04,Wunderground v.1.15,2013-08-26 21:15:00,
2013-08-26 14:25:00,83.3,59.1,29.91,ESE,104,0.0,1.0,44,0.00,,,0.04,Wunderground v.1.15,2013-08-26 21:25:00,
2013-08-26 14:30:00,84.2,58.6,29.91,South,188,0.0,1.0,42,0.00,,,0.04,Wunderground v.1.15,2013-08-26 21:30:00,
2013-08-26 14:35:00,84.1,59.2,29.91,ESE,110,0.0,1.0,43,0.00,,,0.04,Wunderground v.1.15,2013-08-26 21:35:00,
2013-08-26 14:40:00,83.9,57.0,29.91,ESE,113,0.0,0.0,40,0.00,,,0.04,Wunderground v.1.15,2013-08-26 21:40:00,
2013-08-26 14:45:00,84.1,59.8,29.91,SE,134,1.0,1.0,44,0.00,,,0.04,Wunderground v.1.15,2013-08-26 21:45:00,
2013-08-26 14:55:00,85.0,58.7,29.90,SSE,155,1.0,1.0,41,0.00,,,0.04,Wunderground v.1.15,2013-08-26 21:55:00,
2013-08-26 15:00:00,84.5,56.8,29.90,SSE,155,0.0,0.0,39,0.00,,,0.04,Wunderground v.1.15,2013-08-26 22:00:00,
2013-08-26 15:05:00,85.2,60.2,29.90,SSE,155,0.0,0.0,43,0.00,,,0.04,Wunderground v.1.15,2013-08-26 22:05:00,
2013-08-26 15:15:00,85.5,59.1,29.89,South,178,1.0,2.0,41,0.00,,,0.04,Wunderground v.1.15,2013-08-26 22:15:00,
2013-08-26 15:20:00,85.7,59.3,29.89,South,184,1.0,1.0,41,0.00,,,0.04,Wunderground v.1.15,2013-08-26 22:20:00,
2013-08-26 15:25:00,85.8,58.7,29.89,South,191,0.0,1.0,40,0.00,,,0.04,Wunderground v.1.15,2013-08-26 22:25:00,
2013-08-26 15:30:00,85.2,58.8,29.89,South,191,0.0,0.0,41,0.00,,,0.04,Wunderground v.1.15,2013-08-26 22:30:00,
2013-08-26 15:35:00,85.2,57.4,29.88,SSE,157,0.0,0.0,39,0.00,,,0.04,Wunderground v.1.15,2013-08-26 22:35:00,
2013-08-26 15:45:00,85.7,57.2,29.88,South,176,0.0,0.0,38,0.00,,,0.04,Wunderground v.1.15,2013-08-26 22:45:00,
2013-08-26 15:50:00,85.7,56.4,29.88,SSE,167,0.0,4.0,37,0.00,,,0.04,Wunderground v.1.15,2013-08-26 22:50:00,
2013-08-26 15:55:00,85.2,57.4,29.88,ESE,108,0.0,4.0,39,0.00,,,0.04,Wunderground v.1.15,2013-08-26 22:55:00,
2013-08-26 16:00:00,85.4,57.6,29.88,SE,126,0.0,0.0,39,0.00,,,0.04,Wunderground v.1.15,2013-08-26 23:00:00,
2013-08-26 16:05:00,86.1,56.8,29.88,SE,138,0.0,0.0,37,0.00,,,0.04,Wunderground v.1.15,2013-08-26 23:05:00,
2013-08-26 16:15:00,87.0,58.3,29.88,South,186,0.0,0.0,38,0.00,,,0.04,Wunderground v.1.15,2013-08-26 23:15:00,
2013-08-26 16:25:00,86.8,58.9,29.87,South,180,0.0,0.0,39,0.00,,,0.04,Wunderground v.1.15,2013-08-26 23:25:00,
2013-08-26 16:30:00,87.0,56.8,29.87,SW,219,0.0,0.0,36,0.00,,,0.04,Wunderground v.1.15,2013-08-26 23:30:00,
2013-08-26 16:35:00,86.6,55.7,29.87,SSW,192,0.0,0.0,35,0.00,,,0.04,Wunderground v.1.15,2013-08-26 23:35:00,
2013-08-26 16:40:00,86.6,56.5,29.87,South,181,0.0,0.0,36,0.00,,,0.04,Wunderground v.1.15,2013-08-26 23:40:00,
2013-08-26 16:45:00,86.5,57.1,29.87,East,86,1.0,1.0,37,0.00,,,0.04,Wunderground v.1.15,2013-08-26 23:45:00,
2013-08-26 16:55:00,86.7,56.6,29.87,SE,144,0.0,1.0,36,0.00,,,0.04,Wunderground v.1.15,2013-08-26 23:55:00,
2013-08-26 17:00:00,86.8,55.9,29.87,SW,223,0.0,0.0,35,0.00,,,0.04,Wunderground v.1.15,2013-08-27 00:00:00,
2013-08-26 17:05:00,86.9,56.7,29.87,SW,225,0.0,0.0,36,0.00,,,0.04,Wunderground v.1.15,2013-08-27 00:05:00,
2013-08-26 17:15:00,86.5,56.4,29.86,SW,218,0.0,0.0,36,0.00,,,0.04,Wunderground v.1.15,2013-08-27 00:15:00,
2013-08-26 17:20:00,86.4,57.8,29.86,SW,218,0.0,0.0,38,0.00,,,0.04,Wunderground v.1.15,2013-08-27 00:20:00,
2013-08-26 17:25:00,86.1,59.0,29.86,ENE,69,1.0,4.0,40,0.00,,,0.04,Wunderground v.1.15,2013-08-27 00:25:00,
2013-08-26 17:30:00,86.1,56.8,29.86,SE,136,1.0,1.0,37,0.00,,,0.04,Wunderground v.1.15,2013-08-27 00:30:00,
2013-08-26 17:40:00,85.9,58.1,29.86,East,92,0.0,0.0,39,0.00,,,0.04,Wunderground v.1.15,2013-08-27 00:40:00,
2013-08-26 17:45:00,85.6,58.5,29.86,SSE,167,1.0,1.0,40,0.00,,,0.04,Wunderground v.1.15,2013-08-27 00:45:00,
2013-08-26 17:50:00,85.6,57.8,29.86,SSE,149,1.0,1.0,39,0.00,,,0.04,Wunderground v.1.15,2013-08-27 00:50:00,
2013-08-26 17:55:00,85.4,59.7,29.86,South,171,0.0,1.0,42,0.00,,,0.04,Wunderground v.1.15,2013-08-27 00:55:00,
2013-08-26 18:05:00,85.0,59.3,29.86,South,184,1.0,1.0,42,0.00,,,0.04,Wunderground v.1.15,2013-08-27 01:05:00,
2013-08-26 18:15:00,84.9,59.9,29.86,South,178,1.0,5.0,43,0.00,,,0.04,Wunderground v.1.15,2013-08-27 01:15:00,
2013-08-26 18:20:00,84.6,59.0,29.86,South,181,1.0,1.0,42,0.00,,,0.04,Wunderground v.1.15,2013-08-27 01:20:00,
2013-08-26 18:25:00,84.3,58.7,29.86,South,180,1.0,1.0,42,0.00,,,0.04,Wunderground v.1.15,2013-08-27 01:25:00,
2013-08-26 18:35:00,83.6,58.7,29.85,South,175,1.0,1.0,43,0.00,,,0.04,Wunderground v.1.15,2013-08-27 01:35:00,
2013-08-26 18:40:00,83.2,57.7,29.85,SSW,201,0.0,0.0,42,0.00,,,0.04,Wunderground v.1.15,2013-08-27 01:40:00,
2013-08-26 18:45:00,82.7,57.3,29.85,SSW,194,0.0,0.0,42,0.00,,,0.04,Wunderground v.1.15,2013-08-27 01:45:00,
2013-08-26 18:50:00,82.3,56.9,29.85,SSW,195,0.0,0.0,42,0.00,,,0.04,Wunderground v.1.15,2013-08-27 01:50:00,
2013-08-26 18:55:00,82.0,56.6,29.85,South,188,0.0,0.0,42,0.00,,,0.04,Wunderground v.1.15,2013-08-27 01:55:00,
2013-08-26 19:05:00,81.2,56.6,29.85,South,184,0.0,2.0,43,0.00,,,0.04,Wunderground v.1.15,2013-08-27 02:05:00,
2013-08-26 19:15:00,80.4,57.1,29.85,South,190,0.0,0.0,45,0.00,,,0.04,Wunderground v.1.15,2013-08-27 02:15:00,
2013-08-26 19:20:00,80.0,56.7,29.85,South,191,0.0,0.0,45,0.00,,,0.04,Wunderground v.1.15,2013-08-27 02:20:00,
2013-08-26 19:25:00,79.5,56.3,29.85,South,190,0.0,0.0,45,0.00,,,0.04,Wunderground v.1.15,2013-08-27 02:25:00,
2013-08-26 19:30:00,79.0,56.5,29.85,South,176,0.0,0.0,46,0.00,,,0.04,Wunderground v.1.15,2013-08-27 02:30:00,
2013-08-26 19:35:00,78.5,56.0,29.85,South,176,0.0,0.0,46,0.00,,,0.04,Wunderground v.1.15,2013-08-27 02:35:00,
2013-08-26 19:45:00,77.5,55.7,29.85,South,190,0.0,2.0,47,0.00,,,0.04,Wunderground v.1.15,2013-08-27 02:45:00,
2013-08-26 19:50:00,76.9,55.1,29.85,South,190,0.0,0.0,47,0.00,,,0.04,Wunderground v.1.15,2013-08-27 02:50:00,
2013-08-26 19:55:00,76.4,55.3,29.86,South,190,0.0,0.0,48,0.00,,,0.04,Wunderground v.1.15,2013-08-27 02:55:00,
2013-08-26 20:00:00,76.0,55.5,29.85,South,190,0.0,0.0,49,0.00,,,0.04,Wunderground v.1.15,2013-08-27 03:00:00,
2013-08-26 20:05:00,75.5,55.0,29.85,South,180,0.0,0.0,49,0.00,,,0.04,Wunderground v.1.15,2013-08-27 03:05:00,
2013-08-26 20:15:00,74.5,55.2,29.85,South,183,0.0,0.0,51,0.00,,,0.04,Wunderground v.1.15,2013-08-27 03:15:00,
2013-08-26 20:20:00,74.0,55.3,29.85,South,183,0.0,0.0,52,0.00,,,0.04,Wunderground v.1.15,2013-08-27 03:20:00,
2013-08-26 20:30:00,73.2,55.0,29.86,South,186,0.0,0.0,53,0.00,,,0.04,Wunderground v.1.15,2013-08-27 03:30:00,
2013-08-26 20:35:00,72.7,54.6,29.86,South,182,0.0,0.0,53,0.00,,,0.04,Wunderground v.1.15,2013-08-27 03:35:00,
2013-08-26 20:40:00,72.2,55.1,29.86,South,182,0.0,0.0,55,0.00,,,0.04,Wunderground v.1.15,2013-08-27 03:40:00,
2013-08-26 20:45:00,71.9,54.9,29.86,South,182,0.0,0.0,55,0.00,,,0.04,Wunderground v.1.15,2013-08-27 03:45:00,
2013-08-26 20:55:00,71.0,55.5,29.86,South,182,0.0,0.0,58,0.00,,,0.04,Wunderground v.1.15,2013-08-27 03:55:00,
2013-08-26 21:00:00,70.4,54.4,29.86,South,182,0.0,0.0,57,0.00,,,0.04,Wunderground v.1.15,2013-08-27 04:00:00,
2013-08-26 21:05:00,69.9,54.4,29.86,South,182,0.0,0.0,58,0.00,,,0.04,Wunderground v.1.15,2013-08-27 04:05:00,
2013-08-26 21:10:00,69.5,54.5,29.86,South,182,0.0,0.0,59,0.00,,,0.04,Wunderground v.1.15,2013-08-27 04:10:00,
2013-08-26 21:15:00,69.0,54.5,29.86,South,182,0.0,0.0,60,0.00,,,0.04,Wunderground v.1.15,2013-08-27 04:15:00,
2013-08-26 21:20:00,68.6,54.6,29.87,South,182,0.0,0.0,61,0.00,,,0.04,Wunderground v.1.15,2013-08-27 04:20:00,
2013-08-26 21:25:00,68.1,54.1,29.87,South,182,0.0,0.0,61,0.00,,,0.04,Wunderground v.1.15,2013-08-27 04:25:00,
2013-08-26 21:30:00,67.7,54.2,29.86,South,182,0.0,0.0,62,0.00,,,0.04,Wunderground v.1.15,2013-08-27 04:30:00,